< < Back
Terminal Aerodrome Forecast


Current Version              Previous Versions:   1  2  3  4  5  6  7  8  9  

Terminal Aerodrome Forecast

525
FTUS42 KFFC 250525
TAFFTY
TAF
KFTY 250525Z 2506/2606 VRB03KT P6SM FEW250
     FM251500 20005KT P6SM SCT060 BKN250
     FM260200 17004KT P6SM BKN250=

Latest METAR

437
SAUS70 KWBC 250700 RRJ
MTRFTY
METAR KFTY 250653Z 00000KT 10SM CLR 17/14 A3017 RMK AO2 SLP209
T01670139


USA.gov is the U.S. government's official web portal to all federal, state and local government web resources and services.